Lincoln City Weather Center

Moon Phase Calendar



Online Cameras

 


      

Current Conditions in Lincoln City
7/23/2021 9:55:10 AM

64°F
Feels Like 63
Clear
Humidity
70%
Pressure
30.3"
Wind
3 mph (NNW)
Dew Point
54°F
UV Index
4/10 (Moderate)
Visibility
6 mi

Hourly Forecast

Date & Time Fri, Jul 23
9:00 AM
Fri, Jul 23
10:00 AM
Fri, Jul 23
11:00 AM
Fri, Jul 23
12:00 PM
Fri, Jul 23
1:00 PM
Fri, Jul 23
2:00 PM
Fri, Jul 23
3:00 PM
Fri, Jul 23
4:00 PM
Fri, Jul 23
5:00 PM
Fri, Jul 23
6:00 PM
Fri, Jul 23
7:00 PM
Fri, Jul 23
8:00 PM
Fri, Jul 23
9:00 PM
Fri, Jul 23
10:00 PM
Fri, Jul 23
11:00 PM
Sat, Jul 24
12:00 AM
Sat, Jul 24
1:00 AM
Sat, Jul 24
2:00 AM
Sat, Jul 24
3:00 AM
Sat, Jul 24
4:00 AM
Sat, Jul 24
5:00 AM
Sat, Jul 24
6:00 AM
Sat, Jul 24
7:00 AM
Sat, Jul 24
8:00 AM
Sat, Jul 24
9:00 AM
Sat, Jul 24
10:00 AM
Sat, Jul 24
11:00 AM
Sat, Jul 24
12:00 PM
Sat, Jul 24
1:00 PM
Sat, Jul 24
2:00 PM
Sat, Jul 24
3:00 PM
Sat, Jul 24
4:00 PM
Sat, Jul 24
5:00 PM
Sat, Jul 24
6:00 PM
Sat, Jul 24
7:00 PM
Sat, Jul 24
8:00 PM
Sat, Jul 24
9:00 PM
Sat, Jul 24
10:00 PM
Sat, Jul 24
11:00 PM
Sun, Jul 25
12:00 AM
Sun, Jul 25
1:00 AM
Sun, Jul 25
2:00 AM
Sun, Jul 25
3:00 AM
Sun, Jul 25
4:00 AM
Sun, Jul 25
5:00 AM
Sun, Jul 25
6:00 AM
Sun, Jul 25
7:00 AM
Sun, Jul 25
8:00 AM
Condition
Clear

Clear

Clear

Clear

Clear

Clear

Clear

Clear

Clear

Clear

Clear

Clear

Clear

Clear

Clear

Clouds

Clouds

Clouds

Clear

Clear

Clear

Clear

Clear

Clear

Clear

Clear

Clear

Clear

Clear

Clear

Clear

Clear

Clear

Clear

Clear

Clear

Clear

Clouds

Clouds

Clouds

Clouds

Clouds

Clouds

Clouds

Clouds

Clouds

Clouds

Clouds
Temperature 63°F64°F64°F65°F66°F66°F68°F68°F66°F65°F63°F61°F58°F57°F56°F56°F56°F56°F56°F56°F56°F56°F57°F61°F64°F65°F66°F67°F67°F67°F67°F67°F66°F64°F62°F60°F58°F58°F57°F57°F57°F57°F57°F57°F56°F56°F57°F60°F
Feels Like 63°F63°F64°F64°F65°F65°F67°F67°F66°F64°F63°F61°F58°F57°F56°F56°F56°F56°F55°F55°F55°F55°F57°F61°F63°F65°F66°F67°F67°F67°F67°F66°F65°F64°F62°F60°F58°F58°F57°F57°F57°F57°F57°F57°F56°F56°F57°F60°F
Cloudiness 0%0%0%0%0%0%0%0%0%0%0%0%0%1%3%12%12%11%10%8%7%0%2%1%1%1%1%0%0%0%0%0%0%0%0%0%7%11%14%30%31%36%42%46%50%65%70%72%
Visibility 6 mi6 mi6 mi6 mi6 mi6 mi6 mi6 mi6 mi6 mi6 mi6 mi6 mi6 mi6 mi6 mi6 mi6 mi6 mi6 mi6 mi6 mi6 mi6 mi6 mi6 mi6 mi6 mi6 mi6 mi6 mi6 mi6 mi6 mi6 mi6 mi6 mi6 mi4 mi5 mi4 mi4 mi6 mi6 mi6 mi6 mi6 mi6 mi
Precipitation 0%0%0%0%0%0%0%0%0%0%0%0%0%0%0%0%0%0%0%0%0%0%0%0%0%0%0%0%0%0%0%0%0%0%0%0%0%0%0%0%0%0%0%0%0%0%0%0%
Humidity 67%70%66%62%59%56%54%56%61%66%72%81%91%94%95%95%94%93%93%92%92%92%89%80%74%73%72%70%69%69%69%69%71%75%81%88%95%97%97%97%98%98%98%97%98%97%95%89%
Dew Point 52°F54°F53°F52°F51°F50°F49°F51°F52°F53°F54°F54°F55°F54°F54°F54°F54°F53°F53°F53°F53°F53°F54°F54°F55°F56°F56°F56°F56°F56°F56°F55°F55°F55°F55°F56°F56°F56°F56°F55°F55°F55°F55°F55°F55°F55°F55°F56°F
Pressure 30.3"30.3"30.3"30.27"30.24"30.24"30.21"30.18"30.18"30.18"30.18"30.18"30.18"30.18"30.18"30.15"30.15"30.15"30.15"30.12"30.12"30.12"30.12"30.12"30.15"30.15"30.12"30.12"30.09"30.09"30.09"30.06"30.06"30.06"30.06"30.06"30.06"30.06"30.06"30.06"30.06"30.06"30.06"30.06"30.06"30.06"30.06"30.06"
Wind Speed 4.3 mph6.2 mph7.8 mph9.3 mph10.2 mph11.8 mph12.9 mph13.2 mph13.6 mph13 mph12.6 mph11.5 mph10.5 mph9.3 mph8.7 mph8.3 mph7.7 mph7.2 mph6.5 mph6.7 mph6.6 mph7.2 mph6.9 mph8 mph9.9 mph11.9 mph13 mph14 mph14.6 mph15.1 mph15.9 mph16 mph16.2 mph15.7 mph15.2 mph13.9 mph12.9 mph12 mph11.4 mph11 mph10.7 mph10.4 mph10.2 mph9.6 mph8.7 mph9.2 mph9.6 mph10.3 mph
Wind
Direction
357°
N
335°
NNW
331°
NNW
332°
NNW
332°
NNW
339°
NNW
346°
NNW
348°
NNW
347°
NNW
350°
N
352°
N
357°
N

N
12°
NNE
16°
NNE
17°
NNE
18°
NNE
17°
NNE
21°
NNE
13°
NNE
13°
NNE
12°
NNE
12°
NNE
360°
N
351°
N
347°
NNW
346°
NNW
345°
NNW
345°
NNW
346°
NNW
346°
NNW
348°
NNW
350°
N
352°
N
354°
N
356°
N

N

N

N

N

N

N

N
10°
N

N
10°
N

N

N

Daily Forecast

Date High Low Precip. Humidity
Today
Jul 23

Clear
68 °F
51 °F
0%
59%
Saturday
Jul 24

Clear
67 °F
56 °F
0%
69%
Sunday
Jul 25

Clear
66 °F
56 °F
0%
69%
Monday
Jul 26

Clouds
67 °F
54 °F
0%
66%
Tuesday
Jul 27

Clouds
66 °F
54 °F
0%
64%
Wednesday
Jul 28

Clouds
69 °F
55 °F
0%
55%
Thursday
Jul 29

Clouds
68 °F
56 °F
0%
71%
Friday
Jul 30

Clear
66 °F
56 °F
0%
68%
Saturday
Jul 31

Clear
66 °F
52 °F
0%
68%
Sunday
Aug 1

Clouds
66 °F
55 °F
0%
67%
Monday
Aug 2

Clouds
67 °F
56 °F
0%
67%
Tuesday
Aug 3

Clouds
68 °F
58 °F
0%
69%
Wednesday
Aug 4

Clouds
68 °F
58 °F
0%
73%
Thursday
Aug 5

Clouds
67 °F
59 °F
0%
73%
Friday
Aug 6

Rain
65 °F
58 °F
20%
83%
Saturday
Aug 7

Clear
66 °F
56 °F
0%
70%

Temperature 8-14 Day Outlook



Precipitation 8-14 Day Outlook




Quick Links
Lincoln City News
Lincoln City Photos
Lincoln City Videos




About Us
Contact Us
Site Map
Search Site
Advertise With Us
   
LincolnCity.USCoast.info
THE LINCOLN CITY WEBSITE

Copyright 2021, Coastal Town
Privacy    |    Legal